Portada
METAR-TAF:

METAR-TAF

Aeroports :

Mildura, Austràlia

latitud: 34-13-45S, longitud: 142-05-08E, altitud: 51 m

Observació

L'informe es va fer fa 23 minuts, a les 22:00 UTC
Vent 7 kt del Est
Temperatura 15°C
Humitat 41%
Pressió 1026 hPa
Visibilitat 10 km o més

METAR: YMIA 182200Z AUTO 09007KT 9999 // NCD 15/02 Q1026

Hora: 08:23 (22:23 UTC)


TAF: manca

Observacions i pronòstics meteorològics de més de 4000 aeroports (METAR i TAF).

Les estacions disponibles són els punts grocs i vermells al mapa.

Posi el ratolí al punt desitjat per veure el nom de l'estació.

Feu clic per veure les observacions i els pronòstics meteorològics.

Per canviar el mapa: feu clic els botons verds amb una creu de color negre per apropar; al botó verd amb un guió per allunyar la imatge; o en les fletxes verdes per a mapes adjacents.


METAR-TAF: